M I D A S
Marine Information and Data Acquisition System
Tripno 518 of the Zeeleeuw from 2003-06-18 07:52:01 to 2003-06-18 13:06:49
Back to CruiseResearch ActivitiesStationsMapUnderway DataData graphs

EquipmentUnitsComments
TimeDGPSUTC
LatitudeDGPSDM.mWGS84
LongitudeDGPSDM.mWGS84
SpeedMeteo Stationm/sRelative wind speed
DirectionMeteo StationdegRelative wind direction
TemperatureMeteo Stationdeg CelciusAir temperature
PressureMeteo StationPaAtmospheric pressure
HumidityMeteo Station%Relative humidity
Missing or incorrect values are displayed as -999
Metereological data collected by the RV Zeeleeuw from 2003-06-18 07:52:01 to 2003-06-18 13:06:49
                                                                                    Next 1000 lines
Time Latitude Longitude Speed Direction Temperature Pressure Humidity
2003-06-18 07:52:07 51°14.16 2°55.38 10.3 338 17.4 101820 77
2003-06-18 07:52:13 51°14.18 2°55.37 11 339 17.4 101820 77
2003-06-18 07:52:17 51°14.18 2°55.36 10.9 340 17.3 101810 77
2003-06-18 07:52:23 51°14.2 2°55.34 10.1 338 17.3 101810 77
2003-06-18 07:52:29 51°14.21 2°55.33 10.3 339 17.3 101810 77
2003-06-18 07:52:33 51°14.22 2°55.32 10.2 340 17.3 101810 77
2003-06-18 07:52:37 51°14.23 2°55.31 11.1 341 17.3 101810 77
2003-06-18 07:52:43 51°14.24 2°55.29 12.1 339 17.3 101810 77
2003-06-18 07:52:47 51°14.25 2°55.28 10.5 345 17.3 101810 77
2003-06-18 07:52:53 51°14.26 2°55.26 10.5 357 17.3 101810 77
2003-06-18 07:52:57 51°14.27 2°55.24 12.1 352 17.3 101810 77
2003-06-18 07:53:03 51°14.28 2°55.22 11.1 352 17.3 101810 77
2003-06-18 07:53:07 51°14.29 2°55.21 9.7 353 17.3 101810 77
2003-06-18 07:53:13 51°14.3 2°55.19 10.1 356 17.3 101810 77
2003-06-18 07:53:17 51°14.31 2°55.17 11.8 1 17.3 101810 77
2003-06-18 07:53:23 51°14.32 2°55.15 10.3 350 17.3 101810 77
2003-06-18 07:53:29 51°14.33 2°55.12 12.6 347 17.2 101800 77
2003-06-18 07:53:33 51°14.34 2°55.11 12.5 351 17.2 101800 77
2003-06-18 07:53:37 51°14.35 2°55.09 12.7 349 17.2 101820 77
2003-06-18 07:53:43 51°14.36 2°55.07 11.3 352 17.2 101820 77
2003-06-18 07:53:47 51°14.36 2°55.05 12.4 357 17.2 101810 78
2003-06-18 07:53:53 51°14.37 2°55.03 13.4 352 17.2 101810 78
2003-06-18 07:53:57 51°14.38 2°55.01 12.1 356 17.2 101800 78
2003-06-18 07:54:03 51°14.39 2°54.98 11.7 356 17.2 101800 78
2003-06-18 07:54:07 51°14.4 2°54.97 12.4 358 17.2 101800 78
2003-06-18 07:54:13 51°14.41 2°54.94 11.9 355 17.2 101800 78
2003-06-18 07:54:17 51°14.41 2°54.92 14 356 17.2 101800 78
2003-06-18 07:54:23 51°14.43 2°54.89 13.6 355 17.2 101800 78
2003-06-18 07:54:27 51°14.43 2°54.88 13.5 352 17.1 101800 77
2003-06-18 07:54:33 51°14.44 2°54.85 12.8 353 17.1 101800 77
2003-06-18 07:54:37 51°14.45 2°54.83 13.2 351 17.1 101800 77
2003-06-18 07:54:43 51°14.46 2°54.8 13.2 349 17.1 101800 77
2003-06-18 07:54:47 51°14.46 2°54.78 13.9 347 17 101790 77
2003-06-18 07:54:53 51°14.47 2°54.75 13 348 17 101790 77
2003-06-18 07:54:57 51°14.48 2°54.73 13.8 350 17 101790 77
2003-06-18 07:55:03 51°14.49 2°54.7 14.7 351 17 101790 77
2003-06-18 07:55:07 51°14.5 2°54.68 14.1 348 17 101790 77
2003-06-18 07:55:13 51°14.51 2°54.65 14.3 351 17 101790 77
2003-06-18 07:55:17 51°14.52 2°54.63 14.7 351 17 101770 77
2003-06-18 07:55:23 51°14.53 2°54.6 13.9 352 17 101770 77
2003-06-18 07:55:27 51°14.53 2°54.58 13.4 353 17 101770 77
2003-06-18 07:55:33 51°14.54 2°54.56 13.5 358 17 101770 77
2003-06-18 07:55:37 51°14.55 2°54.54 13.2 356 17 101780 77
2003-06-18 07:55:43 51°14.56 2°54.51 12.8 357 17 101780 77
2003-06-18 07:55:47 51°14.57 2°54.49 13 350 17 101780 77
2003-06-18 07:55:53 51°14.58 2°54.46 12.7 350 17 101780 77
2003-06-18 07:55:57 51°14.59 2°54.44 12 349 17 101790 77
2003-06-18 07:56:03 51°14.6 2°54.41 11.7 349 17 101790 77
2003-06-18 07:56:07 51°14.6 2°54.4 13.6 355 17 101790 77
2003-06-18 07:56:13 51°14.61 2°54.37 13.9 359 17 101790 77
2003-06-18 07:56:17 51°14.62 2°54.35 13.7 356 17 101780 77
2003-06-18 07:56:23 51°14.63 2°54.32 13.1 356 17 101780 77
2003-06-18 07:56:27 51°14.64 2°54.3 13.6 354 17 101780 78
2003-06-18 07:56:33 51°14.65 2°54.27 13.2 356 17 101780 78
2003-06-18 07:56:37 51°14.66 2°54.25 12.7 354 17 101780 77
2003-06-18 07:56:43 51°14.67 2°54.22 13.6 358 17 101780 77
2003-06-18 07:56:47 51°14.68 2°54.2 13.1 355 16.9 101780 77
2003-06-18 07:56:53 51°14.69 2°54.17 12.7 355 16.9 101780 77
2003-06-18 07:56:57 51°14.69 2°54.15 12.7 360 16.9 101790 77
2003-06-18 07:57:03 51°14.7 2°54.12 13 353 16.9 101790 77
2003-06-18 07:57:07 51°14.71 2°54.1 12.6 350 16.9 101780 77
2003-06-18 07:57:13 51°14.72 2°54.07 14.2 353 16.9 101780 77
2003-06-18 07:57:17 51°14.73 2°54.05 14.4 351 16.9 101790 77
2003-06-18 07:57:23 51°14.74 2°54.02 13.9 351 16.9 101790 77
2003-06-18 07:57:27 51°14.75 2°54 12.3 355 16.9 101790 77
2003-06-18 07:57:33 51°14.76 2°53.97 13.3 359 16.9 101790 77
2003-06-18 07:57:37 51°14.77 2°53.95 13.8 355 16.9 101770 77
2003-06-18 07:57:43 51°14.78 2°53.92 12.7 353 16.9 101770 77
2003-06-18 07:57:47 51°14.79 2°53.9 13.8 352 16.9 101780 77
2003-06-18 07:57:53 51°14.8 2°53.86 13.5 359 16.9 101780 77
2003-06-18 07:57:57 51°14.8 2°53.84 14.3 357 16.9 101780 77
2003-06-18 07:58:03 51°14.82 2°53.81 13.1 356 16.9 101780 77
2003-06-18 07:58:09 51°14.83 2°53.78 13.5 356 16.9 101780 77
2003-06-18 07:58:13 51°14.83 2°53.76 13.3 353 16.9 101780 77
2003-06-18 07:58:17 51°14.84 2°53.74 13.3 356 16.9 101780 77
2003-06-18 07:58:23 51°14.85 2°53.71 13.5 351 16.9 101780 77
2003-06-18 07:58:27 51°14.86 2°53.69 14 353 16.9 101770 77
2003-06-18 07:58:33 51°14.87 2°53.66 13.7 351 16.9 101770 77
2003-06-18 07:58:37 51°14.88 2°53.64 13.5 355 16.9 101780 77
2003-06-18 07:58:43 51°14.89 2°53.6 12.8 356 16.9 101780 77
2003-06-18 07:58:47 51°14.9 2°53.58 13.7 357 16.9 101780 77
2003-06-18 07:58:53 51°14.91 2°53.55 14.5 358 16.9 101780 77
2003-06-18 07:58:57 51°14.92 2°53.53 13.8 359 16.9 101780 77
2003-06-18 07:59:03 51°14.93 2°53.5 14.5 2 16.9 101780 77
2003-06-18 07:59:07 51°14.94 2°53.48 13.5 1 16.9 101780 77
2003-06-18 07:59:13 51°14.95 2°53.44 14.6 356 16.9 101780 77
2003-06-18 07:59:17 51°14.96 2°53.42 13.8 360 16.9 101780 77
2003-06-18 07:59:23 51°14.97 2°53.39 12.6 357 16.9 101780 77
2003-06-18 07:59:27 51°14.98 2°53.37 14.3 357 16.9 101780 77
2003-06-18 07:59:33 51°14.99 2°53.34 14.1 357 16.9 101780 77
2003-06-18 07:59:37 51°15 2°53.32 14.6 357 16.9 101780 77
2003-06-18 07:59:43 51°15.01 2°53.28 13.7 354 16.9 101780 77
2003-06-18 07:59:47 51°15.02 2°53.26 14.2 359 16.9 101780 77
2003-06-18 07:59:53 51°15.03 2°53.23 13.4   16.9 101780 77
2003-06-18 07:59:57 51°15.04 2°53.21 14.2 4 16.9 101780 77
2003-06-18 08:00:03 51°15.05 2°53.18 13.8 358 16.9 101780 77
2003-06-18 08:00:09 51°15.06 2°53.14 14.5 359 16.8 101770 77
2003-06-18 08:00:13 51°15.07 2°53.12 14.2 1 16.8 101770 77
2003-06-18 08:00:17 51°15.08 2°53.1 14.1 1 16.8 101790 77
2003-06-18 08:00:23 51°15.09 2°53.07 14.3 360 16.8 101790 77
2003-06-18 08:00:27 51°15.1 2°53.05 14.4 358 16.8 101790 77
2003-06-18 08:00:33 51°15.11 2°53.02 14 355 16.8 101790 77
2003-06-18 08:00:37 51°15.12 2°52.99 13.7 358 16.8 101790 77
2003-06-18 08:00:43 51°15.13 2°52.96 13.3 354 16.8 101790 77
2003-06-18 08:00:47 51°15.14 2°52.94 13.2 353 16.8 101790 77
2003-06-18 08:00:53 51°15.15 2°52.91 14.3 353 16.8 101790 77
2003-06-18 08:00:57 51°15.16 2°52.89 13.7 353 16.8 101760 77
2003-06-18 08:01:03 51°15.17 2°52.85 14.6 358 16.8 101760 77
2003-06-18 08:01:09 51°15.18 2°52.82 14.7 357 16.9 101780 78
2003-06-18 08:01:13 51°15.19 2°52.8 14.7 354 16.9 101780 78
2003-06-18 08:01:17 51°15.19 2°52.78 14.6 355 16.9 101770 78
2003-06-18 08:01:23 51°15.21 2°52.74 14.1 355 16.9 101770 78
2003-06-18 08:01:27 51°15.21 2°52.72 14.3 356 16.9 101790 78
2003-06-18 08:01:33 51°15.23 2°52.69 14.9 355 16.9 101790 78
2003-06-18 08:01:37 51°15.23 2°52.67 14.2 354 16.8 101770 78
2003-06-18 08:01:43 51°15.25 2°52.63 13.1 354 16.8 101770 78
2003-06-18 08:01:47 51°15.25 2°52.61 13.7 357 16.8 101780 78
2003-06-18 08:01:53 51°15.27 2°52.58 13.9 353 16.8 101780 78
2003-06-18 08:01:57 51°15.27 2°52.56 13.3 355 16.8 101760 78
2003-06-18 08:02:03 51°15.29 2°52.52 13.7 353 16.8 101760 78
2003-06-18 08:02:07 51°15.29 2°52.5 14 354 16.8 101760 78
2003-06-18 08:02:13 51°15.3 2°52.47 13.4 357 16.8 101760 78
2003-06-18 08:02:17 51°15.31 2°52.45 14.3 355 16.8 101770 78
2003-06-18 08:02:23 51°15.32 2°52.41 14 355 16.8 101770 78
2003-06-18 08:02:27 51°15.33 2°52.39 14.1 355 16.8 101770 78
2003-06-18 08:02:33 51°15.34 2°52.36 13.5 357 16.8 101770 78
2003-06-18 08:02:37 51°15.35 2°52.34 13.1 356 16.8 101770 79
2003-06-18 08:02:43 51°15.36 2°52.3 13.4 353 16.8 101770 79
2003-06-18 08:02:47 51°15.37 2°52.28 14 355 16.8 101770 78
2003-06-18 08:02:53 51°15.38 2°52.25 13.1 355 16.8 101770 78
2003-06-18 08:02:57 51°15.39 2°52.22 14 352 16.8 101770 78
2003-06-18 08:03:03 51°15.4 2°52.19 13.8 352 16.8 101770 78
2003-06-18 08:03:07 51°15.41 2°52.17 14.4 351 16.8 101780 78
2003-06-18 08:03:13 51°15.42 2°52.14 13.4 353 16.8 101780 78
2003-06-18 08:03:17 51°15.43 2°52.12 14 356 16.8 101780 78
2003-06-18 08:03:23 51°15.44 2°52.08 13.2 354 16.8 101780 78
2003-06-18 08:03:27 51°15.45 2°52.06 14.6 354 16.8 101770 78
2003-06-18 08:03:33 51°15.46 2°52.03 13 356 16.8 101770 78
2003-06-18 08:03:37 51°15.47 2°52.01 14.1 351 16.8 101770 79
2003-06-18 08:03:43 51°15.48 2°51.97 13.5 348 16.8 101770 79
2003-06-18 08:03:47 51°15.49 2°51.95 13.5 357 16.8 101770 79
2003-06-18 08:03:53 51°15.5 2°51.92 13.3 356 16.8 101770 79
2003-06-18 08:03:57 51°15.51 2°51.9 13.6 355 16.8 101770 79
2003-06-18 08:04:03 51°15.52 2°51.86 15   16.8 101770 79
2003-06-18 08:04:07 51°15.53 2°51.84 14 357 16.8 101770 79
2003-06-18 08:04:13 51°15.53 2°51.8 14 1 16.8 101770 79
2003-06-18 08:04:17 51°15.54 2°51.78 13.9 3 16.8 101780 79
2003-06-18 08:04:23 51°15.55 2°51.75 14 4 16.8 101780 79
2003-06-18 08:04:27 51°15.55 2°51.72 14.8 3 16.8 101780 79
2003-06-18 08:04:33 51°15.56 2°51.68 14.5 3 16.8 101780 79
2003-06-18 08:04:37 51°15.56 2°51.66 13.6 5 16.8 101780 79
2003-06-18 08:04:43 51°15.57 2°51.62 13.4 6 16.8 101780 79
2003-06-18 08:04:47 51°15.57 2°51.6 14.7 5 16.7 101790 79
2003-06-18 08:04:53 51°15.58 2°51.56 14.6 5 16.7 101790 79
2003-06-18 08:04:57 51°15.58 2°51.53 13.2 7 16.7 101800 79
2003-06-18 08:05:03 51°15.58 2°51.5 14.9 4 16.7 101800 79
2003-06-18 08:05:07 51°15.59 2°51.47 14.9 6 16.7 101800 79
2003-06-18 08:05:13 51°15.59 2°51.43 14.3 9 16.7 101800 79
2003-06-18 08:05:17 51°15.59 2°51.41 14.1 8 16.7 101790 79
2003-06-18 08:05:23 51°15.59 2°51.37 13.8 14 16.7 101790 79
2003-06-18 08:05:27 51°15.59 2°51.34 13.7 11 16.7 101790 79
2003-06-18 08:05:33 51°15.59 2°51.3 15.1 9 16.7 101790 79
2003-06-18 08:05:37 51°15.59 2°51.28 14.5 13 16.7 101790 79
2003-06-18 08:05:43 51°15.59 2°51.24 14.4 17 16.7 101790 79
2003-06-18 08:05:49 51°15.59 2°51.2 13.8 15 16.7 101800 79
2003-06-18 08:05:53 51°15.59 2°51.17 13.7 14 16.7 101800 79
2003-06-18 08:05:57 51°15.59 2°51.15 14.8 11 16.6 101800 79
2003-06-18 08:06:03 51°15.59 2°51.11 14.1 14 16.6 101800 79
2003-06-18 08:06:07 51°15.59 2°51.08 14.1 14 16.6 101800 78
2003-06-18 08:06:13 51°15.59 2°51.04 14 12 16.6 101800 78
2003-06-18 08:06:17 51°15.59 2°51.02 13.7 13 16.6 101800 79
2003-06-18 08:06:23 51°15.58 2°50.98 13.7 18 16.6 101800 79
2003-06-18 08:06:27 51°15.58 2°50.95 14.5 16 16.7 101800 78
2003-06-18 08:06:33 51°15.58 2°50.91 13.9 16 16.7 101800 78
2003-06-18 08:06:37 51°15.58 2°50.89 13.5 15 16.6 101790 78
2003-06-18 08:06:43 51°15.58 2°50.85 13.4 11 16.6 101790 78
2003-06-18 08:06:47 51°15.58 2°50.82 14.6 14 16.6 101800 78
2003-06-18 08:06:53 51°15.58 2°50.78 14.9 13 16.6 101800 78
2003-06-18 08:06:57 51°15.58 2°50.76 14.6 13 16.6 101800 78
2003-06-18 08:07:03 51°15.58 2°50.72 14.9 12 16.6 101800 78
2003-06-18 08:07:07 51°15.58 2°50.69 14.2 14 16.7 101810 79
2003-06-18 08:07:13 51°15.58 2°50.65 15.5 15 16.7 101810 79
2003-06-18 08:07:17 51°15.58 2°50.63 14.2 14 16.7 101810 79
2003-06-18 08:07:23 51°15.58 2°50.59 14.3 13 16.7 101810 79
2003-06-18 08:07:27 51°15.58 2°50.56 14.4 16 16.7 101800 79
2003-06-18 08:07:33 51°15.58 2°50.52 14.5 11 16.7 101800 79
2003-06-18 08:07:37 51°15.58 2°50.5 14.8 15 16.6 101800 79
2003-06-18 08:07:43 51°15.58 2°50.46 15.1 14 16.6 101800 79
2003-06-18 08:07:47 51°15.57 2°50.43 14.4 16 16.7 101810 79
2003-06-18 08:07:53 51°15.57 2°50.39 14.7 14 16.7 101810 79
2003-06-18 08:07:57 51°15.57 2°50.37 13.6 16 16.7 101790 79
2003-06-18 08:08:03 51°15.57 2°50.33 14.3 15 16.7 101790 79
2003-06-18 08:08:07 51°15.56 2°50.3 14 17 16.6 101790 79
2003-06-18 08:08:13 51°15.56 2°50.26 14.3 17 16.6 101790 79
2003-06-18 08:08:17 51°15.56 2°50.24 14.5 15 16.6 101800 78
2003-06-18 08:08:23 51°15.56 2°50.2 13.2 17 16.6 101800 78
2003-06-18 08:08:27 51°15.55 2°50.17 15.5 16 16.6 101810 79
2003-06-18 08:08:33 51°15.55 2°50.13 14.5 19 16.6 101810 79
2003-06-18 08:08:37 51°15.54 2°50.11 14.3 16 16.6 101810 78
2003-06-18 08:08:43 51°15.54 2°50.07 14.9 21 16.6 101810 78
2003-06-18 08:08:47 51°15.54 2°50.04 14 20 16.6 101800 79
2003-06-18 08:08:53 51°15.53 2°50 14.5 20 16.6 101800 79
2003-06-18 08:08:57 51°15.53 2°49.98 14.8 19 16.6 101790 78
2003-06-18 08:09:03 51°15.52 2°49.94 13.5 18 16.6 101790 78
2003-06-18 08:09:07 51°15.52 2°49.91 13.5 17 16.6 101810 79
2003-06-18 08:09:13 51°15.51 2°49.88 15.7 19 16.6 101810 79
2003-06-18 08:09:17 51°15.51 2°49.85 15.4 19 16.6 101810 78
2003-06-18 08:09:23 51°15.5 2°49.81 15.2 20 16.6 101810 78
2003-06-18 08:09:27 51°15.5 2°49.79 14.1 20 16.6 101810 79
2003-06-18 08:09:33 51°15.5 2°49.75 14 21 16.6 101810 79
2003-06-18 08:09:37 51°15.49 2°49.72 13.7 21 16.6 101810 79
2003-06-18 08:09:43 51°15.49 2°49.69 14.4 23 16.6 101810 79
2003-06-18 08:09:47 51°15.48 2°49.66 14.4 18 16.6 101810 79
2003-06-18 08:09:53 51°15.48 2°49.62 14.6 20 16.6 101810 79
2003-06-18 08:09:57 51°15.47 2°49.6 15.1 24 16.6 101820 79
2003-06-18 08:10:03 51°15.46 2°49.56 15.3 23 16.6 101820 79
2003-06-18 08:10:07 51°15.46 2°49.53 14.6 23 16.6 101800 79
2003-06-18 08:10:13 51°15.45 2°49.5 14.3 23 16.6 101800 79
2003-06-18 08:10:17 51°15.45 2°49.47 13.5 21 16.6 101810 79
2003-06-18 08:10:23 51°15.44 2°49.43 14.5 23 16.6 101810 79
2003-06-18 08:10:29 51°15.43 2°49.4 15.3 22 16.6 101810 78
2003-06-18 08:10:33 51°15.43 2°49.37 15.2 21 16.6 101810 78
2003-06-18 08:10:37 51°15.42 2°49.34 15.1 25 16.6 101800 79
2003-06-18 08:10:43 51°15.42 2°49.31 14.7 24 16.6 101800 79
2003-06-18 08:10:47 51°15.41 2°49.28 14.5 24 16.6 101810 79
2003-06-18 08:10:53 51°15.41 2°49.24 15.1 26 16.6 101810 79
2003-06-18 08:10:57 51°15.4 2°49.22 14.9 26 16.6 101800 79
2003-06-18 08:11:03 51°15.4 2°49.18 14.3 27 16.6 101800 79
2003-06-18 08:11:07 51°15.39 2°49.16 14.4 28 16.6 101800 79
2003-06-18 08:11:13 51°15.38 2°49.12 14.1 26 16.6 101800 79
2003-06-18 08:11:17 51°15.38 2°49.1 14.4 25 16.6 101800 78
2003-06-18 08:11:23 51°15.37 2°49.06 14 25 16.6 101800 78
2003-06-18 08:11:29 51°15.37 2°49.02 14.4 27 16.5 101800 78
2003-06-18 08:11:33 51°15.36 2°49 14.9 23 16.5 101800 78
2003-06-18 08:11:37 51°15.36 2°48.97 14.1 26 16.6 101800 78
2003-06-18 08:11:43 51°15.35 2°48.93 14.2 26 16.6 101800 78
2003-06-18 08:11:47 51°15.35 2°48.91 12.9 23 16.6 101810 79
2003-06-18 08:11:53 51°15.34 2°48.87 14.5 22 16.6 101810 79
2003-06-18 08:11:57 51°15.34 2°48.84 14.9 26 16.6 101810 79
2003-06-18 08:12:03 51°15.33 2°48.81 14.2 21 16.6 101810 79
2003-06-18 08:12:07 51°15.32 2°48.78 13.6 25 16.5 101810 79
2003-06-18 08:12:13 51°15.32 2°48.74 13.9 25 16.5 101810 79
2003-06-18 08:12:17 51°15.31 2°48.72 13.5 22 16.6 101810 79
2003-06-18 08:12:23 51°15.31 2°48.68 14.1 22 16.6 101810 79
2003-06-18 08:12:27 51°15.3 2°48.66 14.9 22 16.6 101800 79
2003-06-18 08:12:33 51°15.3 2°48.62 14.7 22 16.6 101800 79
2003-06-18 08:12:37 51°15.29 2°48.59 15.1 26 16.6 101810 78
2003-06-18 08:12:43 51°15.28 2°48.56 14 24 16.6 101810 78
2003-06-18 08:12:47 51°15.28 2°48.53 14.2 25 16.6 101810 79
2003-06-18 08:12:53 51°15.27 2°48.49 13.8 22 16.6 101810 79
2003-06-18 08:12:57 51°15.27 2°48.47 14.2 24 16.6 101810 78
2003-06-18 08:13:03 51°15.26 2°48.43 14.6 24 16.6 101810 78
2003-06-18 08:13:09 51°15.26 2°48.39 14 25 16.5 101810 78
2003-06-18 08:13:13 51°15.25 2°48.37 15.2 26 16.5 101810 78
2003-06-18 08:13:17 51°15.25 2°48.34 15 26 16.6 101810 78
2003-06-18 08:13:23 51°15.24 2°48.3 14.1 26 16.6 101810 78
2003-06-18 08:13:29 51°15.23 2°48.27 14 24 16.5 101810 78
2003-06-18 08:13:33 51°15.23 2°48.24 13.9 26 16.5 101810 78
2003-06-18 08:13:37 51°15.23 2°48.22 13.8 26 16.6 101810 78
2003-06-18 08:13:43 51°15.22 2°48.18 13.4 25 16.6 101810 78
2003-06-18 08:13:47 51°15.21 2°48.15 14.5 20 16.6 101810 78
2003-06-18 08:13:53 51°15.21 2°48.12 13.7 22 16.6 101810 78
2003-06-18 08:13:57 51°15.2 2°48.09 14.1 22 16.6 101810 79
2003-06-18 08:14:03 51°15.2 2°48.05 14.1 23 16.6 101810 79
2003-06-18 08:14:09 51°15.19 2°48.02 14.4 24 16.6 101810 79
2003-06-18 08:14:13 51°15.19 2°47.99 13.4 24 16.6 101810 79
2003-06-18 08:14:17 51°15.18 2°47.97 14 21 16.6 101810 79
2003-06-18 08:14:23 51°15.18 2°47.93 14.2 22 16.6 101810 79
2003-06-18 08:14:27 51°15.17 2°47.9 13.8 21 16.6 101800 78
2003-06-18 08:14:33 51°15.16 2°47.87 13.3 24 16.6 101800 78
2003-06-18 08:14:37 51°15.16 2°47.84 14.5 25 16.6 101820 79
2003-06-18 08:14:43 51°15.15 2°47.81 14.5 25 16.6 101820 79
2003-06-18 08:14:47 51°15.15 2°47.78 13.7 24 16.6 101810 79
2003-06-18 08:14:53 51°15.14 2°47.74 13.7 24 16.6 101810 79
2003-06-18 08:14:57 51°15.14 2°47.72 13.8 22 16.6 101810 79
2003-06-18 08:15:01 51°15.13 2°47.69 14.9 23 16.6 101810 79
2003-06-18 08:15:05 51°15.13 2°47.67 14.6 23 16.6 101810 79
2003-06-18 08:15:11 51°15.12 2°47.63 14.8 23 16.6 101810 79
2003-06-18 08:15:15 51°15.12 2°47.61 14.1 22 16.6 101810 79
2003-06-18 08:15:19 51°15.11 2°47.58 14.9 25 16.6 101810 79
2003-06-18 08:15:23 51°15.11 2°47.56 13.9 25 16.6 101810 79
2003-06-18 08:15:29 51°15.1 2°47.52 13.8 26 16.6 101810 79
2003-06-18 08:15:33 51°15.1 2°47.49 13.8 22 16.5 101810 78
2003-06-18 08:15:37 51°15.1 2°47.47 14.6 24 16.5 101810 78
2003-06-18 08:15:43 51°15.09 2°47.43 14.6 26 16.5 101820 78
2003-06-18 08:15:49 51°15.08 2°47.4 15 27 16.5 101820 78
2003-06-18 08:15:53 51°15.08 2°47.37 13.8 27 16.5 101820 78
2003-06-18 08:15:57 51°15.07 2°47.35 13.8 27 16.5 101820 78
2003-06-18 08:16:03 51°15.07 2°47.31 13.5 26 16.5 101820 78
2003-06-18 08:16:09 51°15.06 2°47.27 12.7 24 16.5 101820 78
2003-06-18 08:16:13 51°15.06 2°47.25 12.3 28 16.5 101810 77
2003-06-18 08:16:17 51°15.05 2°47.22 12.8 25 16.5 101810 77
2003-06-18 08:16:23 51°15.05 2°47.19 13.8 22 16.5 101810 77
2003-06-18 08:16:29 51°15.04 2°47.15 14.3 25 16.5 101810 77
2003-06-18 08:16:33 51°15.03 2°47.13 13.4 26 16.5 101810 77
2003-06-18 08:16:37 51°15.03 2°47.1 13.4 24 16.5 101810 77
2003-06-18 08:16:43 51°15.02 2°47.06 13.5 27 16.5 101820 78
2003-06-18 08:16:49 51°15.02 2°47.03 13.2 21 16.5 101820 78
2003-06-18 08:16:53 51°15.01 2°47 13.5 24 16.5 101820 78
2003-06-18 08:16:57 51°15.01 2°46.98 13.6 25 16.5 101820 78
2003-06-18 08:17:03 51°15 2°46.94 14.2 28 16.6 101820 78
2003-06-18 08:17:09 51°15 2°46.9 13.6 30 16.6 101820 78
2003-06-18 08:17:13 51°14.99 2°46.88 12.5 24 16.6 101810 78
2003-06-18 08:17:17 51°14.99 2°46.85 13.7 25 16.6 101810 78
2003-06-18 08:17:23 51°14.98 2°46.82 13.8 23 16.6 101810 78
2003-06-18 08:17:29 51°14.97 2°46.78 13.9 25 16.6 101810 78
2003-06-18 08:17:33 51°14.97 2°46.76 13.6 27 16.6 101820 78
2003-06-18 08:17:37 51°14.96 2°46.73 12.8 24 16.6 101820 78
2003-06-18 08:17:43 51°14.95 2°46.7 13.1 28 16.6 101820 78
2003-06-18 08:17:49 51°14.95 2°46.66 14.5 30 16.6 101820 78
2003-06-18 08:17:53 51°14.94 2°46.64 14.7 26 16.6 101820 78
2003-06-18 08:17:57 51°14.93 2°46.61 14 30 16.6 101820 78
2003-06-18 08:18:03 51°14.93 2°46.58 14.1 29 16.6 101820 78
2003-06-18 08:18:09 51°14.92 2°46.54 14.3 30 16.6 101820 78
2003-06-18 08:18:13 51°14.91 2°46.52 15 30 16.6 101820 78
2003-06-18 08:18:17 51°14.91 2°46.49 14.2 30 16.6 101820 78
2003-06-18 08:18:23 51°14.9 2°46.46 13.7 27 16.5 101810 78
2003-06-18 08:18:29 51°14.89 2°46.42 14.4 27 16.5 101810 78
2003-06-18 08:18:33 51°14.89 2°46.4 13.4 24 16.5 101820 77
2003-06-18 08:18:37 51°14.88 2°46.37 13.2 25 16.5 101820 77
2003-06-18 08:18:43 51°14.88 2°46.33 14.7 24 16.5 101820 77
2003-06-18 08:18:49 51°14.87 2°46.3 14.9 27 16.5 101820 77
2003-06-18 08:18:53 51°14.87 2°46.27 13.9 27 16.5 101820 77
2003-06-18 08:18:57 51°14.86 2°46.25 14.4 26 16.5 101820 77
2003-06-18 08:19:03 51°14.85 2°46.21 13.5 23 16.5 101830 78
2003-06-18 08:19:09 51°14.85 2°46.17 13.9 27 16.5 101830 78
2003-06-18 08:19:13 51°14.84 2°46.15 14.2 26 16.5 101820 77
2003-06-18 08:19:17 51°14.84 2°46.13 15 29 16.5 101820 77
2003-06-18 08:19:23 51°14.83 2°46.09 14.7 27 16.5 101830 78
2003-06-18 08:19:29 51°14.82 2°46.05 13.6 19 16.5 101830 78
2003-06-18 08:19:33 51°14.82 2°46.03 14 23 16.5 101830 78
2003-06-18 08:19:37 51°14.81 2°46 14.8 22 16.5 101830 78
2003-06-18 08:19:43 51°14.8 2°45.97 14.6 22 16.5 101830 78
2003-06-18 08:19:49 51°14.8 2°45.93 14.3 22 16.5 101830 78
2003-06-18 08:19:53 51°14.79 2°45.91 15.2 24 16.5 101830 78
2003-06-18 08:19:57 51°14.79 2°45.88 14.2 23 16.5 101830 78
2003-06-18 08:20:03 51°14.78 2°45.84 14.7 22 16.5 101830 77
2003-06-18 08:20:09 51°14.78 2°45.81 14.7 23 16.5 101830 77
2003-06-18 08:20:13 51°14.77 2°45.78 14.9 25 16.5 101830 77
2003-06-18 08:20:17 51°14.77 2°45.76 13.9 22 16.5 101830 77
2003-06-18 08:20:23 51°14.76 2°45.72 15.2 23 16.5 101830 78
2003-06-18 08:20:29 51°14.75 2°45.68 14.5 19 16.5 101830 78
2003-06-18 08:20:33 51°14.74 2°45.66 15.3 22 16.5 101830 78
2003-06-18 08:20:37 51°14.74 2°45.63 15.5 23 16.5 101830 78
2003-06-18 08:20:43 51°14.73 2°45.6 14.7 21 16.5 101830 78
2003-06-18 08:20:49 51°14.72 2°45.56 15.2 24 16.5 101830 78
2003-06-18 08:20:53 51°14.72 2°45.53 13.8 24 16.6 101830 79
2003-06-18 08:20:57 51°14.71 2°45.51 14.8 18 16.6 101830 79
2003-06-18 08:21:03 51°14.71 2°45.47 14.8 22 16.5 101830 78
2003-06-18 08:21:05 51°14.71 2°45.46 14.1 19 16.5 101830 78
2003-06-18 08:21:13 51°14.7 2°45.41 14.9 21 16.5 101820 79
2003-06-18 08:21:17 51°14.69 2°45.38 15.5 18 16.5 101820 79
2003-06-18 08:21:23 51°14.68 2°45.35 15.2 23 16.5 101840 79
2003-06-18 08:21:29 51°14.68 2°45.31 15.2 21 16.5 101840 79
2003-06-18 08:21:33 51°14.67 2°45.29 13.9 20 16.5 101840 79
2003-06-18 08:21:37 51°14.67 2°45.26 15.2 18 16.5 101840 79
2003-06-18 08:21:43 51°14.66 2°45.22 15.9 19 16.5 101840 79
2003-06-18 08:21:49 51°14.65 2°45.19 15.3 17 16.5 101840 79
2003-06-18 08:21:53 51°14.64 2°45.16 14.7 17 16.5 101840 79
2003-06-18 08:21:57 51°14.64 2°45.14 14.8 18 16.5 101840 79
2003-06-18 08:22:03 51°14.63 2°45.1 14.9 19 16.5 101840 79
2003-06-18 08:22:09 51°14.62 2°45.06 14.1 18 16.5 101840 79
2003-06-18 08:22:13 51°14.62 2°45.04 15.1 20 16.5 101830 79
2003-06-18 08:22:17 51°14.62 2°45.01 15.3 20 16.5 101830 79
2003-06-18 08:22:23 51°14.61 2°44.98 13.4 19 16.5 101840 79
2003-06-18 08:22:29 51°14.6 2°44.94 14.3 15 16.5 101840 79
2003-06-18 08:22:33 51°14.59 2°44.92 15.6 19 16.5 101840 79
2003-06-18 08:22:37 51°14.59 2°44.89 15 18 16.5 101840 79
2003-06-18 08:22:43 51°14.58 2°44.85 15.5 18 16.5 101830 80
2003-06-18 08:22:49 51°14.57 2°44.82 15.1 18 16.5 101830 80
2003-06-18 08:22:53 51°14.57 2°44.79 14.9 19 16.5 101840 80
2003-06-18 08:22:57 51°14.56 2°44.77 15 21 16.5 101840 80
2003-06-18 08:23:03 51°14.56 2°44.73 15.3 19 16.5 101840 79
2003-06-18 08:23:09 51°14.55 2°44.69 14.3 18 16.5 101840 79
2003-06-18 08:23:13 51°14.54 2°44.67 14.7 19 16.4 101830 79
2003-06-18 08:23:17 51°14.54 2°44.64 14.7 20 16.4 101830 79
2003-06-18 08:23:23 51°14.53 2°44.61 13.6 19 16.4 101830 79
2003-06-18 08:23:29 51°14.52 2°44.57 14.7 23 16.4 101830 79
2003-06-18 08:23:33 51°14.52 2°44.54 14.2 21 16.4 101840 79
2003-06-18 08:23:37 51°14.51 2°44.52 15.4 20 16.4 101840 79
2003-06-18 08:23:43 51°14.51 2°44.48 14.7 21 16.4 101840 80
2003-06-18 08:23:49 51°14.5 2°44.45 15.4 22 16.4 101840 80
2003-06-18 08:23:53 51°14.49 2°44.42 14.8 17 16.4 101840 80
2003-06-18 08:23:57 51°14.49 2°44.4 14.6 15 16.4 101840 80
2003-06-18 08:24:03 51°14.48 2°44.36 14.8 15 16.4 101840 79
2003-06-18 08:24:09 51°14.47 2°44.32 14.8 17 16.4 101840 79
2003-06-18 08:24:13 51°14.47 2°44.3 15 18 16.4 101840 79
2003-06-18 08:24:17 51°14.46 2°44.27 14 14 16.4 101840 79
2003-06-18 08:24:23 51°14.46 2°44.24 14.9 14 16.4 101840 79
2003-06-18 08:24:29 51°14.45 2°44.2 14.9 15 16.4 101840 79
2003-06-18 08:24:33 51°14.45 2°44.17 14.3 17 16.4 101840 80
2003-06-18 08:24:37 51°14.44 2°44.15 14.7 19 16.4 101840 80
2003-06-18 08:24:43 51°14.44 2°44.11 14.1 16 16.4 101850 80
2003-06-18 08:24:49 51°14.43 2°44.07 14.6 13 16.4 101850 80
2003-06-18 08:24:53 51°14.43 2°44.05 15.3 13 16.4 101840 80
2003-06-18 08:24:57 51°14.42 2°44.02 14.8 12 16.4 101840 80
2003-06-18 08:25:03 51°14.42 2°43.99 14.5 14 16.4 101840 80
2003-06-18 08:25:05 51°14.41 2°43.97 14.8 17 16.4 101840 80
2003-06-18 08:25:13 51°14.41 2°43.92 14.3 7 16.4 101850 80
2003-06-18 08:25:17 51°14.4 2°43.9 15.6 12 16.4 101850 80
2003-06-18 08:25:23 51°14.4 2°43.86 14.7 10 16.4 101840 80
2003-06-18 08:25:29 51°14.39 2°43.82 14.9 14 16.4 101840 80
2003-06-18 08:25:33 51°14.39 2°43.8 15.4 11 16.4 101840 80
2003-06-18 08:25:37 51°14.39 2°43.77 15.3 13 16.4 101840 80
2003-06-18 08:25:43 51°14.38 2°43.73 15.7 12 16.4 101840 80
2003-06-18 08:25:49 51°14.38 2°43.69 14.7 14 16.4 101840 80
2003-06-18 08:25:53 51°14.37 2°43.67 15.6 15 16.4 101830 80
2003-06-18 08:25:57 51°14.37 2°43.64 15.2 16 16.4 101830 80
2003-06-18 08:26:03 51°14.37 2°43.6 14 12 16.3 101830 80
2003-06-18 08:26:09 51°14.36 2°43.57 14.4 16 16.3 101830 80
2003-06-18 08:26:13 51°14.36 2°43.54 15.6 13 16.3 101830 80
2003-06-18 08:26:17 51°14.35 2°43.52 15.6 15 16.3 101830 80
2003-06-18 08:26:23 51°14.35 2°43.48 15.3 15 16.3 101840 80
2003-06-18 08:26:29 51°14.35 2°43.44 14.6 13 16.3 101840 80
2003-06-18 08:26:33 51°14.34 2°43.41 15.2 14 16.3 101840 80
2003-06-18 08:26:37 51°14.34 2°43.39 15.3 14 16.3 101840 80
2003-06-18 08:26:43 51°14.33 2°43.35 15.4 16 16.3 101840 80
2003-06-18 08:26:49 51°14.33 2°43.31 14.7 19 16.3 101840 80
2003-06-18 08:26:53 51°14.33 2°43.29 13.6 17 16.2 101840 80
2003-06-18 08:26:57 51°14.32 2°43.27 14.1 15 16.2 101840 80
2003-06-18 08:27:03 51°14.32 2°43.23 12.9 17 16.2 101850 80
2003-06-18 08:27:09 51°14.31 2°43.2 13.7 16 16.2 101850 80
2003-06-18 08:27:13 51°14.31 2°43.18 13 19 16.2 101830 80
2003-06-18 08:27:17 51°14.31 2°43.16 13 19 16.2 101830 80
2003-06-18 08:27:23 51°14.31 2°43.13 14.1 19 16.2 101850 80
2003-06-18 08:27:25 51°14.3 2°43.12 13 18 16.2 101850 80
2003-06-18 08:27:33 51°14.3 2°43.08 12.9 16 16.2 101840 80
2003-06-18 08:27:37 51°14.3 2°43.06 12.9 18 16.2 101840 80
2003-06-18 08:27:43 51°14.29 2°43.03 11.9 19 16.2 101850 80
2003-06-18 08:27:49 51°14.29 2°43 13.1 18 16.2 101850 80
2003-06-18 08:27:53 51°14.29 2°42.98 12.4 19 16.2 101840 80
2003-06-18 08:27:57 51°14.28 2°42.97 12.2 18 16.2 101840 80
2003-06-18 08:28:03 51°14.28 2°42.94 11.9 18 16.2 101850 80
2003-06-18 08:28:09 51°14.28 2°42.91 11.3 20 16.2 101850 80
2003-06-18 08:28:13 51°14.27 2°42.9 11 18 16.2 101850 80
2003-06-18 08:28:17 51°14.27 2°42.88 11.4 14 16.2 101850 80
2003-06-18 08:28:23 51°14.27 2°42.86 11.6 15 16.2 101850 80
2003-06-18 08:28:29 51°14.27 2°42.84 11.5 10 16.2 101850 80
2003-06-18 08:28:33 51°14.26 2°42.82 11.2 19 16.2 101850 80
2003-06-18 08:28:37 51°14.26 2°42.81 10.8 19 16.2 101850 80
2003-06-18 08:28:43 51°14.26 2°42.79 11.1 15 16.2 101850 80
2003-06-18 08:28:49 51°14.26 2°42.77 10.9 18 16.2 101850 80
2003-06-18 08:28:53 51°14.25 2°42.75 10.8 22 16.2 101860 80
2003-06-18 08:28:57 51°14.25 2°42.74 10.1 21 16.2 101860 80
2003-06-18 08:29:03 51°14.25 2°42.72 9.9 23 16.2 101860 80
2003-06-18 08:29:09 51°14.25 2°42.7 9.7 23 16.2 101860 80
2003-06-18 08:29:13 51°14.24 2°42.69 10 25 16.2 101860 80
2003-06-18 08:29:17 51°14.24 2°42.68 11 24 16.2 101860 80
2003-06-18 08:29:23 51°14.24 2°42.66 10.9 26 16.3 101850 80
2003-06-18 08:29:29 51°14.23 2°42.64 10.7 26 16.3 101850 80
2003-06-18 08:29:33 51°14.23 2°42.63 10.2 23 16.2 101860 80
2003-06-18 08:29:37 51°14.23 2°42.61 10.4 24 16.2 101860 80
2003-06-18 08:29:43 51°14.23 2°42.6 10.4 24 16.3 101860 80
2003-06-18 08:29:49 51°14.22 2°42.58 10.2 23 16.3 101860 80
2003-06-18 08:29:53 51°14.22 2°42.57 9.3 22 16.3 101850 80
2003-06-18 08:29:57 51°14.22 2°42.55 9.2 18 16.3 101850 80
2003-06-18 08:30:03 51°14.22 2°42.54 9.6 21 16.3 101860 80
2003-06-18 08:30:09 51°14.21 2°42.52 8.9 23 16.3 101860 80
2003-06-18 08:30:13 51°14.21 2°42.51 9.4 14 16.2 101850 80
2003-06-18 08:30:17 51°14.21 2°42.5 9.6 16 16.2 101850 80
2003-06-18 08:30:23 51°14.21 2°42.48 9.7 11 16.3 101860 80
2003-06-18 08:30:29 51°14.2 2°42.46 9.6 17 16.3 101860 80
2003-06-18 08:30:33 51°14.2 2°42.45 10.1 16 16.3 101860 80
2003-06-18 08:30:37 51°14.2 2°42.44 10.4 14 16.3 101860 80
2003-06-18 08:30:43 51°14.2 2°42.42 9.9 20 16.3 101860 80
2003-06-18 08:30:49 51°14.19 2°42.41 9.9 19 16.3 101860 80
2003-06-18 08:30:53 51°14.19 2°42.39 9.7 19 16.3 101850 80
2003-06-18 08:30:57 51°14.19 2°42.38 10.1 22 16.3 101850 80
2003-06-18 08:31:03 51°14.19 2°42.37 9.8 21 16.3 101860 80
2003-06-18 08:31:09 51°14.18 2°42.35 9.1 20 16.3 101860 80
2003-06-18 08:31:13 51°14.18 2°42.34 9 23 16.3 101860 80
2003-06-18 08:31:17 51°14.18 2°42.33 10.7 20 16.3 101860 80
2003-06-18 08:31:23 51°14.18 2°42.31 10.7 19 16.3 101860 80
2003-06-18 08:31:29 51°14.17 2°42.29 10.4 18 16.3 101860 80
2003-06-18 08:31:33 51°14.17 2°42.28 10.5 19 16.3 101860 80
2003-06-18 08:31:37 51°14.17 2°42.27 11.3 22 16.3 101860 80
2003-06-18 08:31:43 51°14.17 2°42.26 10.7 16 16.3 101860 80
2003-06-18 08:31:49 51°14.16 2°42.24 10.3 16 16.3 101860 80
2003-06-18 08:31:53 51°14.16 2°42.23 10.3 15 16.3 101860 80
2003-06-18 08:31:57 51°14.16 2°42.22 10.3 18 16.3 101860 80
2003-06-18 08:32:03 51°14.16 2°42.2 10.3 15 16.3 101850 80
2003-06-18 08:32:09 51°14.15 2°42.19 10.1 17 16.3 101850 80
2003-06-18 08:32:13 51°14.15 2°42.17 9.8 16 16.2 101850 79
2003-06-18 08:32:17 51°14.15 2°42.16 10.3 14 16.2 101850 79
2003-06-18 08:32:23 51°14.15 2°42.15 10.6 8 16.2 101850 79
2003-06-18 08:32:29 51°14.15 2°42.13 9.9 15 16.2 101850 79
2003-06-18 08:32:33 51°14.14 2°42.12 9.8 8 16.2 101860 79
2003-06-18 08:32:37 51°14.14 2°42.11 10.2 11 16.2 101860 79
2003-06-18 08:32:43 51°14.14 2°42.09 10.7 15 16.2 101860 79
2003-06-18 08:32:49 51°14.14 2°42.07 10.6 13 16.2 101860 79
2003-06-18 08:32:53 51°14.14 2°42.06 9.4 10 16.2 101860 79
2003-06-18 08:32:57 51°14.14 2°42.05 10 14 16.2 101860 79
2003-06-18 08:33:03 51°14.14 2°42.04 10.4 17 16.2 101860 79
2003-06-18 08:33:09 51°14.13 2°42.02 11 15 16.2 101860 79
2003-06-18 08:33:13 51°14.13 2°42.01 10.7 17 16.2 101850 79
2003-06-18 08:33:17 51°14.13 2°42 10.7 16 16.2 101850 79
2003-06-18 08:33:23 51°14.13 2°41.98 10.5 19 16.2 101850 80
2003-06-18 08:33:29 51°14.13 2°41.96 10 16 16.2 101850 80
2003-06-18 08:33:33 51°14.12 2°41.95 10.5 17 16.2 101860 80
2003-06-18 08:33:37 51°14.12 2°41.94 10.2 16 16.2 101860 80
2003-06-18 08:33:43 51°14.12 2°41.92 10.1 17 16.2 101850 79
2003-06-18 08:33:49 51°14.12 2°41.9 10.4 14 16.2 101850 79
2003-06-18 08:33:53 51°14.11 2°41.89 10.2 17 16.2 101850 79
2003-06-18 08:33:57 51°14.11 2°41.88 11.3 15 16.2 101850 79
2003-06-18 08:34:03 51°14.11 2°41.86 11.6 16 16.2 101860 80
2003-06-18 08:34:09 51°14.1 2°41.84 10.8 17 16.2 101860 80
2003-06-18 08:34:13 51°14.1 2°41.82 10.6 22 16.2 101850 80
2003-06-18 08:34:17 51°14.1 2°41.81 11 24 16.2 101850 80
2003-06-18 08:34:23 51°14.09 2°41.79 10.7 25 16.2 101860 80
2003-06-18 08:34:29 51°14.09 2°41.77 11.4 22 16.2 101860 80
2003-06-18 08:34:33 51°14.08 2°41.75 11.3 25 16.2 101860 80
2003-06-18 08:34:37 51°14.08 2°41.74 11.1 22 16.2 101860 80
2003-06-18 08:34:43 51°14.08 2°41.72 11.2 24 16.3 101860 80
2003-06-18 08:34:49 51°14.07 2°41.7 10.7 23 16.3 101860 80
2003-06-18 08:34:53 51°14.07 2°41.68 10.5 25 16.3 101860 80
2003-06-18 08:34:57 51°14.06 2°41.67 10.7 24 16.3 101860 80
2003-06-18 08:35:03 51°14.06 2°41.65 10.2 19 16.2 101850 80
2003-06-18 08:35:09 51°14.05 2°41.63 10.8 18 16.2 101850 80
2003-06-18 08:35:13 51°14.05 2°41.61 11 15 16.2 101850 80
2003-06-18 08:35:17 51°14.04 2°41.6 11.4 15 16.2 101850 80
2003-06-18 08:35:23 51°14.04 2°41.58 11.8 13 16.3 101850 80
2003-06-18 08:35:29 51°14.04 2°41.55 11.5 10 16.3 101850 80
2003-06-18 08:35:33 51°14.03 2°41.54 10.7 8 16.3 101860 80
2003-06-18 08:35:37 51°14.03 2°41.52 11.3 6 16.3 101860 80
2003-06-18 08:35:43 51°14.03 2°41.5 11.5 6 16.2 101850 79
2003-06-18 08:35:49 51°14.03 2°41.48 11.3 7 16.2 101850 79
2003-06-18 08:35:53 51°14.03 2°41.46 11 8 16.2 101850 79
2003-06-18 08:35:57 51°14.03 2°41.45 10.9 7 16.2 101850 79
2003-06-18 08:36:03 51°14.03 2°41.42 11 8 16.1 101850 79
2003-06-18 08:36:05 51°14.03 2°41.42 10.3 6 16.1 101850 79
2003-06-18 08:36:13 51°14.02 2°41.38 10.2 7 16.2 101850 79
2003-06-18 08:36:17 51°14.02 2°41.37 10.2 9 16.2 101850 79
2003-06-18 08:36:23 51°14.02 2°41.35 11 13 16.2 101850 79
2003-06-18 08:36:29 51°14.02 2°41.33 10.6 8 16.2 101850 79
2003-06-18 08:36:33 51°14.02 2°41.31 10.2 11 16.1 101860 79
2003-06-18 08:36:37 51°14.02 2°41.3 9.8 3 16.1 101860 79
2003-06-18 08:36:43 51°14.02 2°41.28 9.6 1 16.2 101860 79
2003-06-18 08:36:49 51°14.02 2°41.26 10 356 16.2 101860 79
2003-06-18 08:36:53 51°14.02 2°41.25 10.5 358 16.2 101850 79
2003-06-18 08:36:57 51°14.02 2°41.23 10.3 350 16.2 101850 79
2003-06-18 08:37:03 51°14.02 2°41.22 9.6 344 16.2 101860 79
2003-06-18 08:37:09 51°14.02 2°41.2 9.1 340 16.2 101860 79
2003-06-18 08:37:13 51°14.03 2°41.19 9.1 332 16.2 101850 80
2003-06-18 08:37:17 51°14.03 2°41.18 10.1 326 16.2 101850 80
2003-06-18 08:37:23 51°14.03 2°41.17 7.9 321 16.2 101850 80
2003-06-18 08:37:29 51°14.04 2°41.16 8.3 319 16.2 101850 80
2003-06-18 08:37:33 51°14.04 2°41.15 7.9 228 16.2 101840 80
2003-06-18 08:37:37 51°14.05 2°41.15 8.7 307 16.2 101840 80
2003-06-18 08:37:43 51°14.05 2°41.14 7.3 304 16.2 101850 80
2003-06-18 08:37:49 51°14.06 2°41.14 8.1 295 16.2 101850 80
2003-06-18 08:37:53 51°14.06 2°41.13 8.3 293 16.3 101850 80
2003-06-18 08:37:57 51°14.07 2°41.13 7.9 288 16.3 101850 80
2003-06-18 08:38:03 51°14.07 2°41.13 8.2 278 16.3 101870 80
2003-06-18 08:38:09 51°14.08 2°41.13 8 275 16.3 101870 80
2003-06-18 08:38:13 51°14.08 2°41.13 9 266 16.3 101870 80
2003-06-18 08:38:17 51°14.08 2°41.13 7.6 263 16.3 101870 80
2003-06-18 08:38:23 51°14.09 2°41.13 6.4 260 16.3 101870 80
2003-06-18 08:38:29 51°14.09 2°41.13 4.3   16.3 101870 80
2003-06-18 08:38:33 51°14.1 2°41.13 4.4 251 16.3 101880 80
2003-06-18 08:38:37 51°14.1 2°41.14 5.4 245 16.3 101880 80
2003-06-18 08:38:43 51°14.1 2°41.14 6.2 234 16.3 101880 80
2003-06-18 08:38:49 51°14.1 2°41.15 5.4 234 16.3 101880 80
2003-06-18 08:38:53 51°14.11 2°41.15 6 229 16.3 101880 80
2003-06-18 08:38:57 51°14.11 2°41.15 5.5 226 16.3 101880 80
2003-06-18 08:39:03 51°14.11 2°41.16 6 223 16.3 101880 80
2003-06-18 08:39:09 51°14.11 2°41.16 6.2 226 16.3 101880 80
2003-06-18 08:39:13 51°14.11 2°41.16 6 217 16.2 101880 80
2003-06-18 08:39:17 51°14.11 2°41.16 5.2 216 16.2 101880 80
2003-06-18 08:39:23 51°14.11 2°41.17 5 214 16.2 101880 80
2003-06-18 08:39:29 51°14.11 2°41.17 5.1 215 16.2 101880 80
2003-06-18 08:39:33 51°14.11 2°41.17 4.9 203 16.2 101880 80
2003-06-18 08:39:37 51°14.11 2°41.17 5.8 212 16.2 101880 80
2003-06-18 08:39:43 51°14.11 2°41.17 5.5 218 16.2 101880 80
2003-06-18 08:39:49 51°14.11 2°41.18 6.5 214 16.2 101880 80
2003-06-18 08:39:53 51°14.11 2°41.18 6.2 212 16.2 101880 80
2003-06-18 08:39:57 51°14.11 2°41.18 4.7 201 16.2 101880 80
2003-06-18 08:40:03 51°14.11 2°41.18 5.9 211 16.2 101880 80
2003-06-18 08:40:09 51°14.11 2°41.18 6.4 212 16.2 101880 80
2003-06-18 08:40:13 51°14.11 2°41.18 6.4 219 16.2 101880 80
2003-06-18 08:40:17 51°14.11 2°41.19 6.9 218 16.2 101880 80
2003-06-18 08:40:23 51°14.11 2°41.19 6.9 219 16.1 101880 79
2003-06-18 08:40:29 51°14.11 2°41.19 6.3 220 16.1 101880 79
2003-06-18 08:40:33 51°14.11 2°41.19 6 218 16.1 101880 79
2003-06-18 08:40:37 51°14.11 2°41.19 6.1 216 16.1 101880 79
2003-06-18 08:40:43 51°14.11 2°41.19 6.9 219 16.1 101880 80
2003-06-18 08:40:49 51°14.11 2°41.2 6.8 219 16.1 101880 80
2003-06-18 08:40:53 51°14.11 2°41.2 6.8 220 16.1 101880 80
2003-06-18 08:40:57 51°14.11 2°41.2 5.8 216 16.1 101880 80
2003-06-18 08:41:03 51°14.11 2°41.2 5.5 224 16.1 101890 79
2003-06-18 08:41:09 51°14.11 2°41.2 6.4 223 16.1 101890 79
2003-06-18 08:41:13 51°14.11 2°41.2 6.2 226 16.1 101880 79
2003-06-18 08:41:17 51°14.11 2°41.2 6.2 226 16.1 101880 79
2003-06-18 08:41:23 51°14.11 2°41.2 7.4 228 16.1 101880 79
2003-06-18 08:41:29 51°14.11 2°41.21 6.7 226 16.1 101880 79
2003-06-18 08:41:33 51°14.11 2°41.21 6.5 233 16.1 101880 80
2003-06-18 08:41:37 51°14.11 2°41.21 7.2 232 16.1 101880 80
2003-06-18 08:41:43 51°14.11 2°41.21 6.4 233 16.1 101890 80
2003-06-18 08:41:49 51°14.11 2°41.21 6 228 16.1 101890 80
2003-06-18 08:41:53 51°14.11 2°41.21 6.7 226 16.1 101880 80
2003-06-18 08:41:57 51°14.11 2°41.21 6.9 230 16.1 101880 80
2003-06-18 08:42:03 51°14.11 2°41.21 5.8 232 16.1 101890 80
2003-06-18 08:42:09 51°14.11 2°41.21 6.5 228 16.1 101890 80
2003-06-18 08:42:13 51°14.11 2°41.21 6.7 229 16.1 101880 80
2003-06-18 08:42:17 51°14.11 2°41.21 6.7 230 16.1 101880 80
2003-06-18 08:42:23 51°14.11 2°41.21 6.9 232 16.1 101880 80
2003-06-18 08:42:29 51°14.11 2°41.21 6.2 236 16.1 101880 80
2003-06-18 08:42:33 51°14.11 2°41.21 5.5 247 16.1 101890 80
2003-06-18 08:42:37 51°14.11 2°41.21 5.5 244 16.1 101890 80
2003-06-18 08:42:43 51°14.11 2°41.21 5.5 247 16.1 101880 80
2003-06-18 08:42:49 51°14.12 2°41.21 6.9 241 16.1 101880 80
2003-06-18 08:42:53 51°14.12 2°41.21 5.6 242 16.1 101890 80
2003-06-18 08:42:57 51°14.12 2°41.21 7.5 237 16.1 101890 80
2003-06-18 08:43:03 51°14.12 2°41.21 6.8 236 16.1 101880 80
2003-06-18 08:43:09 51°14.12 2°41.21 7.2 234 16.1 101880 80
2003-06-18 08:43:13 51°14.12 2°41.21 6.2 237 16.1 101890 80
2003-06-18 08:43:17 51°14.12 2°41.21 5.3 239 16.1 101890 80
2003-06-18 08:43:23 51°14.12 2°41.21 6.2 242 16.1 101880 80
2003-06-18 08:43:29 51°14.12 2°41.21 6.1 240 16.1 101880 80
2003-06-18 08:43:33 51°14.12 2°41.21 7.7 239 16.1 101890 80
2003-06-18 08:43:37 51°14.12 2°41.21 6.6 237 16.1 101890 80
2003-06-18 08:43:43 51°14.12 2°41.21 6.5 247 16.2 101880 80
2003-06-18 08:43:49 51°14.12 2°41.21 6.7 240 16.2 101880 80
2003-06-18 08:43:53 51°14.12 2°41.21 7.7 242 16.2 101880 80
2003-06-18 08:43:57 51°14.12 2°41.21 7 246 16.2 101880 80
2003-06-18 08:44:03 51°14.12 2°41.21 6.5 248 16.2 101890 80
2003-06-18 08:44:09 51°14.12 2°41.21 5.5 250 16.2 101890 80
2003-06-18 08:44:13 51°14.12 2°41.21 5.8 244 16.1 101890 80
2003-06-18 08:44:17 51°14.12 2°41.21 6.3 249 16.1 101890 80
2003-06-18 08:44:23 51°14.12 2°41.21 5.6 251 16.1 101890 80
2003-06-18 08:44:29 51°14.12 2°41.21 6.1 238 16.1 101890 80
2003-06-18 08:44:33 51°14.12 2°41.21 5.5 249 16.1 101890 80
2003-06-18 08:44:37 51°14.12 2°41.2 5.8 254 16.1 101890 80
2003-06-18 08:44:43 51°14.12 2°41.2 5.2 253 16.2 101890 80
2003-06-18 08:44:49 51°14.12 2°41.2 4.4 253 16.2 101890 80
2003-06-18 08:44:53 51°14.12 2°41.2 5.5 252 16.2 101880 81
2003-06-18 08:44:57 51°14.12 2°41.2 5.3 252 16.2 101880 81
2003-06-18 08:45:03 51°14.12 2°41.2 6.8 248 16.2 101890 80
2003-06-18 08:45:09 51°14.12 2°41.2 5.7 248 16.2 101890 80
2003-06-18 08:45:13 51°14.12 2°41.2 5 253 16.2 101890 80
2003-06-18 08:45:17 51°14.12 2°41.2 4.7 254 16.2 101890 80
2003-06-18 08:45:23 51°14.13 2°41.2 5.4 258 16.2 101890 80
2003-06-18 08:45:29 51°14.13 2°41.2 5.3   16.2 101890 80
2003-06-18 08:45:33 51°14.13 2°41.2 4.5 255 16.2 101890 80
2003-06-18 08:45:37 51°14.13 2°41.19 4.9 256 16.2 101890 80
2003-06-18 08:45:43 51°14.13 2°41.19 5.4 253 16.2 101890 80
2003-06-18 08:45:49 51°14.13 2°41.19 5.8 258 16.2 101890 80
2003-06-18 08:45:53 51°14.13 2°41.19 6.6 259 16.2 101890 81
2003-06-18 08:45:57 51°14.13 2°41.19 6.6 260 16.2 101890 81
2003-06-18 08:46:03 51°14.13 2°41.19 6 260 16.2 101890 81
2003-06-18 08:46:09 51°14.13 2°41.19 6.1 256 16.2 101890 81
2003-06-18 08:46:13 51°14.13 2°41.19 5.6 256 16.2 101890 81
2003-06-18 08:46:17 51°14.13 2°41.19 5.3 256 16.2 101890 81
2003-06-18 08:46:23 51°14.13 2°41.19 4.9 254 16.1 101890 80
2003-06-18 08:46:29 51°14.13 2°41.18 5.2 256 16.1 101890 80
2003-06-18 08:46:33 51°14.13 2°41.18 5.1 254 16.1 101890 80
2003-06-18 08:46:37 51°14.13 2°41.18 6 255 16.1 101890 80
2003-06-18 08:46:43 51°14.13 2°41.18 5.4 251 16.1 101890 79
2003-06-18 08:46:49 51°14.13 2°41.18 5.8 250 16.1 101890 79
2003-06-18 08:46:53 51°14.13 2°41.18 4.6 252 16.1 101890 80
2003-06-18 08:46:57 51°14.13 2°41.18 5.2 254 16.1 101890 80
2003-06-18 08:47:03 51°14.13 2°41.18 5.3 252 16.1 101890 80
2003-06-18 08:47:09 51°14.13 2°41.18 4 256 16.1 101890 80
2003-06-18 08:47:13 51°14.13 2°41.18 6.9 248 16 101900 80
2003-06-18 08:47:17 51°14.13 2°41.18 6.5 248 16 101900 80
2003-06-18 08:47:23 51°14.13 2°41.17 6.4 249 16.1 101890 79
2003-06-18 08:47:29 51°14.13 2°41.17 5.9 247 16.1 101890 79
2003-06-18 08:47:33 51°14.13 2°41.17 6.1 256 16 101890 79
2003-06-18 08:47:37 51°14.13 2°41.17 4.1 255 16 101890 79
2003-06-18 08:47:43 51°14.14 2°41.17 5.6 249 16 101890 79
2003-06-18 08:47:49 51°14.14 2°41.17 4.4 249 16 101890 79
2003-06-18 08:47:53 51°14.14 2°41.17 4.9 252 16.1 101890 80
2003-06-18 08:47:57 51°14.14 2°41.17 4.1 254 16.1 101890 80
2003-06-18 08:48:03 51°14.14 2°41.17 6.3 259 16.1 101890 80
2003-06-18 08:48:09 51°14.14 2°41.17 5.6 257 16.1 101890 80
2003-06-18 08:48:13 51°14.14 2°41.17 5.9 256 16.1 101890 80
2003-06-18 08:48:17 51°14.14 2°41.16 4.5 254 16.1 101890 80
2003-06-18 08:48:23 51°14.14 2°41.16 5 253 16.1 101890 80
2003-06-18 08:48:29 51°14.14 2°41.16 6.3 248 16.1 101890 80
2003-06-18 08:48:33 51°14.14 2°41.16 5.7 250 16.1 101900 80
2003-06-18 08:48:37 51°14.14 2°41.16 5.5 251 16.1 101900 80
2003-06-18 08:48:43 51°14.14 2°41.16 5.7 250 16.1 101890 80
2003-06-18 08:48:49 51°14.14 2°41.16 6.5 252 16.1 101890 80
2003-06-18 08:48:53 51°14.14 2°41.16 5.4 250 16 101900 80
2003-06-18 08:48:57 51°14.14 2°41.16 5.8 251 16 101900 80
2003-06-18 08:49:03 51°14.14 2°41.16 6.1 247 16 101900 80
2003-06-18 08:49:09 51°14.15 2°41.16 6.9 248 16 101900 80
2003-06-18 08:49:13 51°14.15 2°41.16 5.9 248 16 101890 80
2003-06-18 08:49:17 51°14.15 2°41.15 6 254 16 101890 80
2003-06-18 08:49:23 51°14.15 2°41.15 5.9 242 16 101890 80
2003-06-18 08:49:29 51°14.15 2°41.15 6.2 251 16 101890 80
2003-06-18 08:49:33 51°14.15 2°41.15 7 243 16 101890 80
2003-06-18 08:49:37 51°14.15 2°41.15 6.1 247 16 101890 80
2003-06-18 08:49:43 51°14.15 2°41.15 5.2 254 16 101900 80
2003-06-18 08:49:49 51°14.15 2°41.15 5.9 251 16 101900 80
2003-06-18 08:49:53 51°14.15 2°41.15 5.7 250 16 101890 80
2003-06-18 08:49:57 51°14.15 2°41.15 5.2 251 16 101890 80
2003-06-18 08:50:03 51°14.15 2°41.15 4.9 254 16 101890 80
2003-06-18 08:50:09 51°14.15 2°41.15 5.5 254 16 101890 80
2003-06-18 08:50:13 51°14.15 2°41.15 4.9 251 16 101890 80
2003-06-18 08:50:17 51°14.15 2°41.15 5.7 251 16 101890 80
2003-06-18 08:50:23 51°14.15 2°41.15 5.4 250 16 101900 80
2003-06-18 08:50:29 51°14.16 2°41.14 5.6 255 16 101900 80
2003-06-18 08:50:33 51°14.16 2°41.14 4.9 254 16 101900 80
2003-06-18 08:50:37 51°14.16 2°41.14 4.5 253 16 101900 80
2003-06-18 08:50:43 51°14.16 2°41.14 5.3 251 16 101900 80
2003-06-18 08:50:49 51°14.16 2°41.14 6.4 245 16 101900 80
2003-06-18 08:50:53 51°14.16 2°41.14 6.1 250 16.1 101890 81
2003-06-18 08:50:57 51°14.16 2°41.14 5.6 250 16.1 101890 81
2003-06-18 08:51:03 51°14.16 2°41.14 7 248 16 101890 80
2003-06-18 08:51:09 51°14.16 2°41.14 7 244 16 101890 80
2003-06-18 08:51:13 51°14.16 2°41.14 5.7 252 16 101900 80
2003-06-18 08:51:17 51°14.16 2°41.14 5.2 249 16 101900 80
2003-06-18 08:51:23 51°14.16 2°41.14 5.6 248 16 101890 80
2003-06-18 08:51:29 51°14.16 2°41.14 5.1 251 16 101890 80
2003-06-18 08:51:33 51°14.16 2°41.14 5.4 251 16 101900 80
2003-06-18 08:51:37 51°14.16 2°41.14 5.3 256 16 101900 80
2003-06-18 08:51:43 51°14.16 2°41.13 2.6 252 16 101890 80
2003-06-18 08:51:49 51°14.16 2°41.13 5.4 251 16 101890 80
2003-06-18 08:51:53 51°14.16 2°41.13 5.9 255 16 101900 80
2003-06-18 08:51:57 51°14.16 2°41.13 7.5 258 16 101900 80
2003-06-18 08:52:03 51°14.17 2°41.13 5.4 256 16 101890 80
2003-06-18 08:52:09 51°14.17 2°41.13 5.2 255 16 101890 80
2003-06-18 08:52:13 51°14.17 2°41.13 5.2 256 16 101890 80
2003-06-18 08:52:17 51°14.17 2°41.13 6.6 258 16 101890 80
2003-06-18 08:52:23 51°14.17 2°41.13 6 259 16 101900 80
2003-06-18 08:52:29 51°14.17 2°41.13 5.5 258 16 101900 80
2003-06-18 08:52:33 51°14.17 2°41.13 5.8 242 16 101900 80
2003-06-18 08:52:37 51°14.17 2°41.12 5.1 253 16 101900 80
2003-06-18 08:52:43 51°14.17 2°41.12 6.5 247 16 101900 80
2003-06-18 08:52:49 51°14.17 2°41.12 6.1 248 16 101900 80
2003-06-18 08:52:53 51°14.17 2°41.12 5.4 252 16 101900 80
2003-06-18 08:52:57 51°14.17 2°41.12 5.9 253 16 101900 80
2003-06-18 08:53:03 51°14.17 2°41.12 5.5 257 16 101900 80
2003-06-18 08:53:09 51°14.17 2°41.12 6.9 260 16 101900 80
2003-06-18 08:53:13 51°14.17 2°41.12 6.8 260 16 101900 80
2003-06-18 08:53:17 51°14.17 2°41.12 6.1 258 16 101900 80
2003-06-18 08:53:23 51°14.17 2°41.11 5.8 258 16 101900 80
2003-06-18 08:53:29 51°14.17 2°41.11 6.2 257 16 101900 80
2003-06-18 08:53:33 51°14.17 2°41.11 6.4 255 16 101890 81
2003-06-18 08:53:37 51°14.17 2°41.11 7.4 258 16 101890 81
2003-06-18 08:53:43 51°14.17 2°41.11 6.8 258 16 101900 81
2003-06-18 08:53:49 51°14.17 2°41.11 6.3 259 16 101900 81
2003-06-18 08:53:53 51°14.17 2°41.11 6 258 16 101900 80
2003-06-18 08:53:57 51°14.17 2°41.11 6.3 258 16 101900 80
2003-06-18 08:54:03 51°14.17 2°41.1 6 259 16 101900 80
2003-06-18 08:54:09 51°14.17 2°41.1 8.3 261 16 101900 80
2003-06-18 08:54:13 51°14.17 2°41.1 8.5 265 16 101900 80
2003-06-18 08:54:17 51°14.17 2°41.1 7.1 263 16 101900 80
2003-06-18 08:54:23 51°14.17 2°41.1 7.4 263 16 101900 80
2003-06-18 08:54:29 51°14.17 2°41.1 8.9 266 16 101900 80
2003-06-18 08:54:33 51°14.17 2°41.1 8.6 260 16 101900 80
2003-06-18 08:54:37 51°14.17 2°41.1 9.5 265 16 101900 80
2003-06-18 08:54:43 51°14.17 2°41.09 8.3 261 16 101900 80
2003-06-18 08:54:49 51°14.17 2°41.09 8.6 263 16 101900 80
2003-06-18 08:54:53 51°14.17 2°41.09 9 263 16 101890 80
2003-06-18 08:54:57 51°14.17 2°41.09 9.3 265 16 101890 80
2003-06-18 08:55:03 51°14.17 2°41.09 8.9 265 16 101900 80
2003-06-18 08:55:09 51°14.17 2°41.09 9.1 267 16 101900 80
2003-06-18 08:55:13 51°14.17 2°41.09 8.8 266 16 101900 80
2003-06-18 08:55:17 51°14.17 2°41.08 7.6 260 16 101900 80
2003-06-18 08:55:23 51°14.17 2°41.08 6 259 16 101910 80
2003-06-18 08:55:29 51°14.17 2°41.08 7.6 262 16 101910 80
2003-06-18 08:55:33 51°14.17 2°41.08 8.9 260 16 101900 80
2003-06-18 08:55:37 51°14.17 2°41.08 8.6 261 16 101900 80
2003-06-18 08:55:43 51°14.17 2°41.08 9.6 264 16 101900 80
2003-06-18 08:55:49 51°14.17 2°41.08 9.1 266 16 101900 80
2003-06-18 08:55:53 51°14.17 2°41.07 8.6 267 16 101900 80
2003-06-18 08:55:57 51°14.17 2°41.07 9.3 270 16 101900 80
2003-06-18 08:56:03 51°14.17 2°41.07 7.9 265 16 101910 80
2003-06-18 08:56:09 51°14.18 2°41.07 9.5 268 16 101910 80
2003-06-18 08:56:13 51°14.18 2°41.07 7.9 264 16 101900 80
2003-06-18 08:56:17 51°14.18 2°41.07 9 263 16 101900 80
2003-06-18 08:56:23 51°14.18 2°41.07 9.1 264 16.1 101910 80
2003-06-18 08:56:29 51°14.18 2°41.06 10.3 266 16.1 101910 80
2003-06-18 08:56:33 51°14.18 2°41.06 10.6 265 16.1 101900 81
2003-06-18 08:56:37 51°14.18 2°41.06 9.1 266 16.1 101900 81
2003-06-18 08:56:43 51°14.18 2°41.06 9.5 268 16 101900 81
2003-06-18 08:56:49 51°14.18 2°41.06 8.7 263 16 101900 81
2003-06-18 08:56:53 51°14.18 2°41.06 10.2 268 16 101900 80
2003-06-18 08:56:57 51°14.18 2°41.06 9.6 270 16 101900 80
2003-06-18 08:57:03 51°14.18 2°41.05 8.9 271 16 101900 80
2003-06-18 08:57:09 51°14.18 2°41.05 8.5 270 16 101900 80
2003-06-18 08:57:13 51°14.18 2°41.05 9.4 271 16 101890 80
2003-06-18 08:57:17 51°14.18 2°41.05 9.3 270 16 101890 80
2003-06-18 08:57:23 51°14.18 2°41.05 9.9 269 16 101890 80
2003-06-18 08:57:29 51°14.18 2°41.05 10.2 270 16 101890 80
2003-06-18 08:57:33 51°14.18 2°41.05 8.9 268 16 101890 80
2003-06-18 08:57:37 51°14.18 2°41.04 9 273 16 101890 80
2003-06-18 08:57:43 51°14.18 2°41.04 8.1 277 16 101880 79
2003-06-18 08:57:49 51°14.18 2°41.04 9.3 271 16 101880 79
2003-06-18 08:57:53 51°14.18 2°41.04 8.2 272 16 101890 79
2003-06-18 08:57:57 51°14.18 2°41.04 9.1 266 16 101890 79
2003-06-18 08:58:03 51°14.18 2°41.04 8.6 275 16 101890 80
2003-06-18 08:58:09 51°14.19 2°41.04 7.7 276 16 101890 80
2003-06-18 08:58:13 51°14.19 2°41.03 7.2 269 16 101890 79
2003-06-18 08:58:17 51°14.19 2°41.03 8.1 276 16 101890 79
2003-06-18 08:58:23 51°14.19 2°41.03 7.2 271 16 101890 80
2003-06-18 08:58:29 51°14.19 2°41.03 6.5 271 16 101890 80
2003-06-18 08:58:33 51°14.19 2°41.03 7.9 270 16 101880 80
2003-06-18 08:58:37 51°14.19 2°41.03 7.1 276 16 101880 80
2003-06-18 08:58:43 51°14.19 2°41.03 8.4 275 16.1 101890 80
2003-06-18 08:58:49 51°14.19 2°41.02 9 274 16.1 101890 80
2003-06-18 08:58:53 51°14.19 2°41.02 8.3 277 16.1 101890 81
2003-06-18 08:58:57 51°14.19 2°41.02 7.9 277 16.1 101890 81
2003-06-18 08:59:03 51°14.2 2°41.02 8 279 16.1 101890 81
2003-06-18 08:59:09 51°14.2 2°41.02 8.6 278 16.1 101890 81
2003-06-18 08:59:13 51°14.2 2°41.02 8.5 272 16.1 101890 80
2003-06-18 08:59:17 51°14.2 2°41.02 7.9 277 16.1 101890 80
2003-06-18 08:59:23 51°14.2 2°41.01 8.7 278 16 101890 80
2003-06-18 08:59:29 51°14.2 2°41.01 8.8 278 16 101890 80
2003-06-18 08:59:33 51°14.2 2°41.01 9.1 276 16.1 101890 80
2003-06-18 08:59:37 51°14.2 2°41.01 8.9 276 16.1 101890 80
2003-06-18 08:59:43 51°14.2 2°41.01 8.4 278 16.1 101880 80
2003-06-18 08:59:49 51°14.21 2°41.01 8.4 272 16.1 101880 80
2003-06-18 08:59:53 51°14.21 2°41.01 8.9 267 16.1 101890 80
2003-06-18 08:59:57 51°14.21 2°41 7.9 270 16.1 101890 80
2003-06-18 09:00:03 51°14.21 2°41 9.1 268 16.1 101890 80
2003-06-18 09:00:09 51°14.21 2°41 8.4 269 16.1 101890 80
2003-06-18 09:00:13 51°14.21 2°41 9.2 266 16.1 101890 80
2003-06-18 09:00:17 51°14.21 2°41 8.5 265 16.1 101890 80
2003-06-18 09:00:23 51°14.21 2°41 7.9 268 16.1 101890 80
2003-06-18 09:00:29 51°14.22 2°41 8.9 268 16.1 101890 80
2003-06-18 09:00:33 51°14.22 2°40.99 8 265 16.1 101890 80
2003-06-18 09:00:37 51°14.22 2°40.99 8.7 266 16.1 101890 80
2003-06-18 09:00:43 51°14.22 2°40.99 9.9 271 16.1 101890 80
2003-06-18 09:00:49 51°14.22 2°40.99 8 274 16.1 101890 80
2003-06-18 09:00:53 51°14.22 2°40.99 8.8 271 16.1 101890 80
2003-06-18 09:00:57 51°14.22 2°40.99 9.1 271 16.1 101890 80
2003-06-18 09:01:03 51°14.23 2°40.99 9.7 275 16.1 101890 80
2003-06-18 09:01:09 51°14.23 2°40.99 8 277 16.1 101890 80
2003-06-18 09:01:13 51°14.23 2°40.98 7.4 278 16.1 101890 80
2003-06-18 09:01:17 51°14.23 2°40.98 7.9 276 16.1 101890 80
2003-06-18 09:01:23 51°14.23 2°40.98 9.2 279 16.1 101890 80
2003-06-18 09:01:29 51°14.23 2°40.98 8 277 16.1 101890 80
2003-06-18 09:01:33 51°14.23 2°40.98 8.3 280 16.1 101890 80
2003-06-18 09:01:37 51°14.23 2°40.98 8.8 279 16.1 101890 80
2003-06-18 09:01:43 51°14.24 2°40.98 9.1 276 16.1 101890 80
2003-06-18 09:01:49 51°14.24 2°40.98 10.2 275 16.1 101890 80
2003-06-18 09:01:53 51°14.24 2°40.98 9.3 273 16.1 101890 80
2003-06-18 09:01:57 51°14.24 2°40.98 10.2 272 16.1 101890 80
2003-06-18 09:02:03 51°14.24 2°40.97 10.6 267 16.1 101890 80
2003-06-18 09:02:09 51°14.24 2°40.97 10.3 270 16.1 101890 80
2003-06-18 09:02:13 51°14.25 2°40.97 10.3 269 16.1 101890 80
2003-06-18 09:02:17 51°14.25 2°40.97 8.4 276 16.1 101890 80
2003-06-18 09:02:23 51°14.25 2°40.97 9.3 271 16.1 101890 79
2003-06-18 09:02:29 51°14.25 2°40.97 10.9 272 16.1 101890 79
2003-06-18 09:02:33 51°14.25 2°40.97 9.3 270 16 101890 79
2003-06-18 09:02:37 51°14.25 2°40.97 7.5 275 16 101890 79
2003-06-18 09:02:43 51°14.25 2°40.97 10.5 271 16 101900 79
2003-06-18 09:02:49 51°14.26 2°40.96 9 271 16 101900 79
2003-06-18 09:02:53 51°14.26 2°40.96 10.3 271 16 101900 79
2003-06-18 09:02:57 51°14.26 2°40.96 10.1 268 16 101900 79
2003-06-18 09:03:03 51°14.26 2°40.96 8.5 275 16 101900 79
2003-06-18 09:03:09 51°14.26 2°40.96 9.3 267 16 101900 79
2003-06-18 09:03:13 51°14.26 2°40.96 9.6 266 16 101900 79
2003-06-18 09:03:17 51°14.26 2°40.96 9.4 269 16 101900 79
2003-06-18 09:03:23 51°14.26 2°40.96 10.7 266 16 101900 79
2003-06-18 09:03:29 51°14.27 2°40.96 10.2 266 16 101900 79
2003-06-18 09:03:33 51°14.27 2°40.96 10.5 268 16 101900 79
2003-06-18 09:03:37 51°14.27 2°40.96 9.5 265 16 101900 79
2003-06-18 09:03:43 51°14.27 2°40.96 8.9 263 16 101900 79
2003-06-18 09:03:49 51°14.27 2°40.95 7.2 257 16 101900 79
2003-06-18 09:03:53 51°14.27 2°40.95 6.4 259 16 101900 79
2003-06-18 09:03:57 51°14.27 2°40.95 6.9 257 16 101900 79
2003-06-18 09:04:03 51°14.27 2°40.95 6.8 258 16 101900 79
2003-06-18 09:04:09 51°14.28 2°40.95 6.7 258 16 101900 79
2003-06-18 09:04:13 51°14.28 2°40.95 7 257 16.1 101900 79
2003-06-18 09:04:17 51°14.28 2°40.95 6.4 258 16.1 101900 79
2003-06-18 09:04:23 51°14.28 2°40.95 7.2 258 16 101900 79
2003-06-18 09:04:29 51°14.28 2°40.95 6.3   16 101900 79
2003-06-18 09:04:33 51°14.28 2°40.95 7.5 257 16.1 101910 79
2003-06-18 09:04:37 51°14.28 2°40.95 9.7 267 16.1 101910 79
2003-06-18 09:04:43 51°14.29 2°40.95 9 283 16 101900 79
2003-06-18 09:04:49 51°14.29 2°40.95 8.6 287 16 101900 79
2003-06-18 09:04:53 51°14.3 2°40.95 8.7 299 16 101910 79
2003-06-18 09:04:57 51°14.3 2°40.95 10.3 302 16 101910 79
2003-06-18 09:05:03 51°14.31 2°40.94 10.6 302 16 101900 79
2003-06-18 09:05:09 51°14.32 2°40.94 10.2 310 16 101900 79
2003-06-18 09:05:13 51°14.32 2°40.94 10.2 311 16 101900 79
2003-06-18 09:05:17 51°14.33 2°40.93 9.4 41 16 101900 79
2003-06-18 09:05:23 51°14.34 2°40.92 11 317 16 101890 79
2003-06-18 09:05:29 51°14.35 2°40.91 11.4 315 16 101890 79
2003-06-18 09:05:33 51°14.36 2°40.9 12.1 320 16 101890 79
2003-06-18 09:05:37 51°14.37 2°40.9 11.7 318 16 101890 79
2003-06-18 09:05:43 51°14.38 2°40.89 12.5 320 16.1 101890 79
2003-06-18 09:05:49 51°14.39 2°40.88 12.2 318 16.1 101890 79
2003-06-18 09:05:53 51°14.4 2°40.87 12.4 321 16.1 101880 79
2003-06-18 09:05:57 51°14.41 2°40.86 11.9 321 16.1 101880 79
2003-06-18 09:06:03 51°14.43 2°40.85 13.2 319 16.1 101880 79
2003-06-18 09:06:09 51°14.45 2°40.83 12.1 321 16.1 101880 79
2003-06-18 09:06:13 51°14.46 2°40.83 12.9 322 16 101880 79
2003-06-18 09:06:17 51°14.47 2°40.82 12.4 319 16 101880 79
2003-06-18 09:06:23 51°14.49 2°40.81 13 323 16 101880 79
2003-06-18 09:06:29 51°14.51 2°40.8 12.5 323 16 101880 79
2003-06-18 09:06:33 51°14.53 2°40.79 13.3 327 16 101880 79
2003-06-18 09:06:37 51°14.54 2°40.79 12.6 325 16 101880 79
2003-06-18 09:06:43 51°14.56 2°40.77 12.2 324 16.1 101870 78
2003-06-18 09:06:49 51°14.58 2°40.76 13.1 322 16.1 101870 78
2003-06-18 09:06:53 51°14.59 2°40.76 12.7 326 16.1 101880 79
2003-06-18 09:06:57 51°14.61 2°40.75 11.2 322 16.1 101880 79
2003-06-18 09:07:03 51°14.63 2°40.74 13.4 324 16.1 101870 78
2003-06-18 09:07:09 51°14.65 2°40.73 13.8 325 16.1 101870 78
2003-06-18 09:07:13 51°14.66 2°40.72 13.5 324 16.1 101870 79
2003-06-18 09:07:17 51°14.68 2°40.72 12.8 322 16.1 101870 79
2003-06-18 09:07:23 51°14.7 2°40.71 12.5 320 16.1 101880 79
2003-06-18 09:07:29 51°14.72 2°40.7 12.6 319 16.1 101880 79
2003-06-18 09:07:33 51°14.74 2°40.69 12.5 320 16.1 101870 79
2003-06-18 09:07:37 51°14.75 2°40.69 12.6 324 16.1 101870 79
2003-06-18 09:07:43 51°14.77 2°40.68 12.1 323 16.1 101870 79
2003-06-18 09:07:49 51°14.79 2°40.67 13 322 16.1 101870 79
2003-06-18 09:07:53 51°14.81 2°40.66 11.6 320 16.1 101880 79
2003-06-18 09:07:57 51°14.82 2°40.66 12.2 325 16.1 101880 79
2003-06-18 09:08:03 51°14.84 2°40.65 13.2 321 16.1 101870 79
2003-06-18 09:08:09 51°14.86 2°40.64 13 324 16.1 101870 79
2003-06-18 09:08:13 51°14.88 2°40.63 12.5 321 16.1 101870 79
2003-06-18 09:08:17 51°14.89 2°40.63 13.7 322 16.1 101870 79
2003-06-18 09:08:23 51°14.92 2°40.62 13.2 321 16.1 101880 79
2003-06-18 09:08:29 51°14.94 2°40.61 12.4 319 16.1 101880 79
2003-06-18 09:08:33 51°14.95 2°40.6 12.1 321 16.1 101880 79
2003-06-18 09:08:37 51°14.97 2°40.6 11.7 326 16.1 101880 79
2003-06-18 09:08:43 51°14.99 2°40.59 11.9 325 16.1 101870 79
2003-06-18 09:08:49 51°15.01 2°40.58 14.1 325 16.1 101870 79
2003-06-18 09:08:53 51°15.02 2°40.57 12 323 16.1 101870 78
2003-06-18 09:08:57 51°15.04 2°40.57 12 326 16.1 101870 78
2003-06-18 09:09:03 51°15.06 2°40.56 11.7 324 16.1 101880 79
2003-06-18 09:09:09 51°15.08 2°40.55 11.5 324 16.1 101880 79
2003-06-18 09:09:13 51°15.1 2°40.54 12.2 320 16.1 101870 79
2003-06-18 09:09:17 51°15.11 2°40.54 12.3 321 16.1 101870 79
2003-06-18 09:09:23 51°15.13 2°40.53 12.8 321 16.1 101880 78
2003-06-18 09:09:29 51°15.15 2°40.52 12 318 16.1 101880 78
2003-06-18 09:09:33 51°15.17 2°40.52 11.2 321 16.1 101880 79
2003-06-18 09:09:37 51°15.18 2°40.51 11.1 324 16.1 101880 79
2003-06-18 09:09:43 51°15.21 2°40.51 12.4 322 16.1 101870 78
2003-06-18 09:09:49 51°15.23 2°40.51 12.1 318 16.1 101870 78
2003-06-18 09:09:53 51°15.24 2°40.5 10.8 319 16.1 101870 79
2003-06-18 09:09:57 51°15.26 2°40.5 11.3 42 16.1 101870 79
2003-06-18 09:10:03 51°15.28 2°40.5 11.9 313 16.1 101880 79
2003-06-18 09:10:09 51°15.3 2°40.51 11.5 230 16.1 101880 79
2003-06-18 09:10:13 51°15.32 2°40.51 11.3 311 16.1 101880 79
2003-06-18 09:10:17 51°15.33 2°40.51 10.2 310 16.1 101880 79
2003-06-18 09:10:23 51°15.35 2°40.51 9.6 317 16.1 101880 79
2003-06-18 09:10:29 51°15.37 2°40.52 9.8 314 16.1 101880 79
2003-06-18 09:10:33 51°15.39 2°40.52 10 41 16.1 101880 78
2003-06-18 09:10:37 51°15.4 2°40.52 9.9 227 16.1 101880 78
2003-06-18 09:10:43 51°15.42 2°40.53 9.9 314 16.1 101880 78
2003-06-18 09:10:49 51°15.45 2°40.54 9.4 43 16.1 101880 78
2003-06-18 09:10:53 51°15.46 2°40.54 9.6 313 16.1 101890 79
2003-06-18 09:10:57 51°15.47 2°40.55 9.2 310 16.1 101890 79
2003-06-18 09:11:03 51°15.5 2°40.55 9.5 308 16.1 101890 79
2003-06-18 09:11:09 51°15.52 2°40.56 9.1 315 16.1 101890 79
2003-06-18 09:11:13 51°15.53 2°40.57 11 310 16.1 101890 79
2003-06-18 09:11:17 51°15.55 2°40.57 10 307 16.1 101890 79
2003-06-18 09:11:23 51°15.57 2°40.58 10.5 308 16.1 101890 79
2003-06-18 09:11:29 51°15.59 2°40.59 10.2 309 16.1 101890 79
2003-06-18 09:11:33 51°15.6 2°40.6 10.3 303 16.1 101890 79
2003-06-18 09:11:37 51°15.62 2°40.6 10.1 303 16.1 101890 79
2003-06-18 09:11:43 51°15.64 2°40.61 8.8 310 16.1 101890 79
2003-06-18 09:11:49 51°15.66 2°40.62 8.8 227 16.1 101890 79
2003-06-18 09:11:53 51°15.67 2°40.62 9.4 310 16 101890 79
2003-06-18 09:11:57 51°15.69 2°40.63 9.9 308 16 101890 79
2003-06-18 09:12:03 51°15.71 2°40.64 8.8 228 16.1 101890 79
2003-06-18 09:12:09 51°15.73 2°40.65 10.2 310 16.1 101890 79
2003-06-18 09:12:13 51°15.74 2°40.65 10.9 306 16.1 101890 79
2003-06-18 09:12:17 51°15.76 2°40.66 9.5 308 16.1 101890 79
2003-06-18 09:12:23 51°15.78 2°40.67 10 312 16.1 101890 79
2003-06-18 09:12:29 51°15.8 2°40.67 10.3 309 16.1 101890 79
2003-06-18 09:12:33 51°15.81 2°40.68 10.3 304 16 101890 79
2003-06-18 09:12:37 51°15.83 2°40.69 9.7 303 16 101890 79
2003-06-18 09:12:43 51°15.85 2°40.69 9.7 310 16 101890 79
2003-06-18 09:12:49 51°15.87 2°40.7 9.1 313 16 101890 79
2003-06-18 09:12:53 51°15.89 2°40.71 9.6 228 16 101890 79
2003-06-18 09:12:57 51°15.9 2°40.71 9.5 310 16 101890 79
2003-06-18 09:13:03 51°15.92 2°40.72 10 311 16.1 101890 79
2003-06-18 09:13:09 51°15.94 2°40.73 10.1 307 16.1 101890 79
2003-06-18 09:13:13 51°15.96 2°40.73 9.1 308 16.1 101890 79
2003-06-18 09:13:17 51°15.97 2°40.74 9 305 16.1 101890 79
2003-06-18 09:13:23 51°15.99 2°40.75 9.5 303 16 101890 79
2003-06-18 09:13:29 51°16.01 2°40.75 9.5   16 101890 79
2003-06-18 09:13:33 51°16.03 2°40.76 9.9 311 16 101890 79
2003-06-18 09:13:37 51°16.04 2°40.77 9.2 303 16 101890 79
2003-06-18 09:13:43 51°16.06 2°40.77 8.5 302 16 101900 79
2003-06-18 09:13:49 51°16.08 2°40.78 9 304 16 101900 79
2003-06-18 09:13:53 51°16.1 2°40.79 8.8 314 16 101890 79
2003-06-18 09:13:57 51°16.11 2°40.79 10.6 228 16 101890 79
2003-06-18 09:14:03 51°16.13 2°40.8 9.1 309 16 101890 79
2003-06-18 09:14:09 51°16.15 2°40.81 8.8 309 16 101890 79
2003-06-18 09:14:13 51°16.17 2°40.81 9 231 16 101890 79
2003-06-18 09:14:17 51°16.18 2°40.82 9.4 313 16 101890 79
2003-06-18 09:14:23 51°16.2 2°40.83 10.1 308 16 101890 79
2003-06-18 09:14:29 51°16.22 2°40.83 10 308 16 101890 79
2003-06-18 09:14:33 51°16.24 2°40.84 9.8 310 16 101890 79
2003-06-18 09:14:37 51°16.25 2°40.84 9.3 307 16 101890 79
2003-06-18 09:14:43 51°16.27 2°40.85 9.4 310 16 101900 79
2003-06-18 09:14:49 51°16.3 2°40.86 10 305 16 101900 79
2003-06-18 09:14:53 51°16.31 2°40.86 11 305 16 101890 78
2003-06-18 09:14:57 51°16.32 2°40.87 10.7 308 16 101890 78
2003-06-18 09:15:03 51°16.34 2°40.87 9.7 308 16 101890 79
2003-06-18 09:15:09 51°16.36 2°40.88 9.6 308 16 101890 79
2003-06-18 09:15:13 51°16.37 2°40.88 9.3 311 16 101890 78